THORAD DELTA 1 DEB, 8437

Orbit data source: Space-Track

THORAD DELTA 1 DEB, 8437 is space debris in SSO originally from a launch on Fri, 15 Nov 1974 UTC launched from the Air Force Western Test Range (AFWTR). Debris objects in space refer to the collection of defunct objects orbiting the Earth. Examples of debris include non-operational satellites, rocket bodies, and fragments generated from explosions, collisions, or faulty payload assembly.

Loading next visibility...
Identifier
8437, 1974-089CN
Orbit
SSO
Country
Flag of USUS
Related business
Manufacturer
Unknown
Mission
Spacecraft
Bus & Motor
Unknown
Mass
Unknown
Launch date (UTC)
1974-11-15 (51 years ago)
Launch vehicle
Unknown
Launch site
Air Force Western Test Range (AFWTR)
Object type
Payload
Rocket body
Debris
Shape & HBR
Unknown shape, 0.1 m
Radar Cross Section
Small (<0.1 m²)

Expand to show TLE details & history
Last TLE update: 18 hours ago

TLE from 18 hours ago
0 THORAD DELTA 1 DEB
1 08437U 74089CN  25286.24377505  .00000005  00000-0  30500-3 0  9992
2 08437 101.9079 280.6715 0043850 241.5718 147.1817 12.58310449337489
Epoch: 2025-10-13T05:51Z
TLE epoch observation values (Epoch: 2025-10-13T05:51:02.164Z)
Latitude
28.38554°
Longitude
164.35221°
Altitude
1,461.96 km
Speed
7.121 km/s
True Right ascension
18h 16m 38s
True Declination
28° 15' 17"
Sunlit
Object was in daylight at epoch
Visualization orbit readout
Latitude
Unknown
Longitude
Unknown
Altitude
Unknown
Speed
Unknown
Apparent Right ascension
Unknown
Apparent Declination
Unknown
Sunlit
N/A
Visualization observer readout
Local Sidereal Time
18:27:06
Azimuth
Unknown
Elevation
Unknown
Doppler factor
Unknown
Orbital elements
Apogee altitude
1,461.699 km
Perigee altitude
1,393.244 km
Semi-major axis
7,805.608 km
Eccentricity
0.00439
Inclination
101.9079°
RAAN
280.6715°
Arg. of periapsis
241.5718°
True anomaly
147.45278°
Mean anomaly
147.1817°
Eccentric anomaly
147.31737°
Mean motion
3.14726 °/min
Orbital period
114.39 mins
BSTAR
0.000305
Loading maneuver chart data...
Computing Atmospheric mass density...

Documentation

Showing up to 5 results
|